DECAYED

CZ-6A DEB, 54531 (Decayed)

Orbit data source: Space-Track

CZ-6A DEB, 54531 was space debris in LEO originally from a launch on Fri, 11 Nov 2022 UTC launched from the Taiyaun Space Center, China (TSC). Debris objects in space refer to the collection of defunct objects orbiting the Earth. Examples of debris include non-operational satellites, rocket bodies, and fragments generated from explosions, collisions, or faulty payload assembly.

Not visible in the next 10 days
Identifier
54531, 2022-151KK
Orbit
Decayed
Country
Flag of CNCN / PRC
Related business
Manufacturer
SAST
Mission
Decayed spacecraft
Bus & Motor
Unknown
Mass
Unknown
Launch date (UTC)
2022-11-11 (4 years ago)
Launch vehicle
Unknown
Launch site
Taiyaun Space Center, China (TSC)
Object type
Payload
Rocket body
Debris
Shape & HBR
Unknown shape, 0.1 m
Radar Cross Section
Medium (>0.1 m² and <1 m²)

Expand to show TLE details & history
Last TLE update: 1 month ago

TLE from 1 month ago
0 CZ-6A DEB
1 54531U 22151KK  26166.72978348  .16330956  31630-5  90070-2 0  9997
2 54531  98.5251 254.3397 0023029 286.9381  72.9380 16.18819306 98971
Epoch: 2026-06-15T17:30Z
TLE epoch observation values (Epoch: 2026-06-15T17:30:53.292Z)
Latitude
0.00004°
Longitude
87.60566°
Altitude
221.517 km
Speed
7.776 km/s
True Right ascension
16h 57m 21s
True Declination
0° 00' 00"
Sunlit
Object was in full shadow at epoch
Visualization orbit readout
Latitude
Unknown
Longitude
Unknown
Altitude
Unknown
Speed
Unknown
Apparent Right ascension
Unknown
Apparent Declination
Unknown
Sunlit
N/A
Visualization observer readout
Local Sidereal Time
15:09:51
Azimuth
Unknown
Elevation
Unknown
Doppler factor
Unknown
Orbital elements
Apogee altitude
234.843 km
Perigee altitude
204.455 km
Semi-major axis
6,597.786 km
Eccentricity
0.0023
Inclination
98.5251°
RAAN
254.3397°
Arg. of periapsis
286.9381°
True anomaly
73.19049°
Mean anomaly
72.938°
Eccentric anomaly
73.06422°
Mean motion
4.04991 °/min
Orbital period
88.89 mins
BSTAR
0.009007
Loading maneuver chart data...
Computing Atmospheric mass density...
Loading historical data...
Loading historical data...
Loading historical data...
Loading historical data...
Loading historical data...
Loading historical data...
Loading historical data...

Documentation

Showing up to 5 results
|